When you browse on this site, cookies collect data to enhance your experience and personalize the content and advertising you see.
Visit our Privacy Policy to learn more. By continuing to use the site, you agree to this use of cookies and data.
  • In Lithuania
  • List of Countries
  • For 7 days
  • Water Temperature
  • Satellite Maps
  • Weather Map
  • Weather Widgets
  • user-avatar
    Login

    Hourly Weather Soldatskaya

    Today, 17 July, Wednesday

    Time Temperature Precipitation Wind Pressure Humidity
    00:00 +20°C° 0.6 mm 3 mps 735 mmHg 86%
    01:00 +19°C° 0 mm 3 mps 735 mmHg 85%
    02:00 +19°C° 0 mm 2 mps 735 mmHg 84%
    03:00 +20°C° 0 mm 1 mps 735 mmHg 83%
    04:00 +20°C° 0 mm 1 mps 735 mmHg 82%
    05:00 +20°C° 0 mm 1 mps 735 mmHg 82%
    06:00 +21°C° 0 mm 1 mps 735 mmHg 82%
    07:00 +21°C° 0 mm 1 mps 735 mmHg 77%
    08:00 +22°C° 0 mm 1 mps 734 mmHg 73%
    09:00 +23°C° 0 mm 1 mps 734 mmHg 68%
    10:00 +25°C° 0 mm 1 mps 734 mmHg 62%
    11:00 +26°C° 0 mm 1 mps 734 mmHg 55%
    12:00 +28°C° 0 mm 2 mps 734 mmHg 49%
    13:00 +28°C° 0 mm 2 mps 734 mmHg 49%
    14:00 +28°C° 0 mm 2 mps 734 mmHg 49%
    15:00 +29°C° 0 mm 2 mps 733 mmHg 49%
    16:00 +28°C° 0 mm 2 mps 733 mmHg 52%
    17:00 +28°C° 0 mm 2 mps 733 mmHg 55%
    18:00 +28°C° 0 mm 2 mps 734 mmHg 58%
    19:00 +26°C° 0 mm 2 mps 734 mmHg 62%
    20:00 +24°C° 0 mm 1 mps 734 mmHg 66%
    21:00 +23°C° 0 mm 1 mps 734 mmHg 70%
    22:00 +22°C° 0 mm 1 mps 734 mmHg 72%
    23:00 +22°C° 0 mm 1 mps 733 mmHg 74%

    Tomorrow, 18 July, Thursday

    Time Temperature Precipitation Wind Pressure Humidity
    00:00 +21°C° 0 mm 1 mps 733 mmHg 76%
    01:00 +21°C° 0 mm 1 mps 733 mmHg 77%
    02:00 +21°C° 0 mm 1 mps 733 mmHg 78%
    03:00 +21°C° 0 mm 1 mps 733 mmHg 79%
    04:00 +21°C° 0 mm 1 mps 733 mmHg 78%
    05:00 +22°C° 0 mm 1 mps 733 mmHg 77%
    06:00 +22°C° 0 mm 1 mps 732 mmHg 76%
    07:00 +24°C° 0 mm 1 mps 732 mmHg 68%
    08:00 +26°C° 0 mm 2 mps 732 mmHg 61%
    09:00 +28°C° 0 mm 2 mps 732 mmHg 54%
    10:00 +29°C° 0 mm 3 mps 732 mmHg 50%
    11:00 +30°C° 0 mm 3 mps 732 mmHg 47%
    12:00 +32°C° 0 mm 4 mps 732 mmHg 44%
    13:00 +33°C° 0 mm 4 mps 732 mmHg 42%
    14:00 +34°C° 0 mm 3 mps 732 mmHg 41%
    15:00 +34°C° 0 mm 3 mps 733 mmHg 40%
    16:00 +33°C° 0 mm 3 mps 733 mmHg 44%
    17:00 +31°C° 0 mm 3 mps 733 mmHg 48%
    18:00 +30°C° 0 mm 3 mps 733 mmHg 53%
    19:00 +28°C° 0.1 mm 2 mps 734 mmHg 55%
    20:00 +27°C° 0.1 mm 2 mps 734 mmHg 58%
    21:00 +26°C° 0.1 mm 2 mps 734 mmHg 60%
    22:00 +25°C° 0.4 mm 2 mps 734 mmHg 66%
    23:00 +24°C° 0.4 mm 2 mps 735 mmHg 73%

    Day after tomorrow, 19 July, Friday

    Time Temperature Precipitation Wind Pressure Humidity
    00:00 +23°C° 0.4 mm 2 mps 735 mmHg 79%
    01:00 +21°C° 0.1 mm 2 mps 735 mmHg 81%
    02:00 +21°C° 0.1 mm 2 mps 735 mmHg 84%
    03:00 +20°C° 0.1 mm 2 mps 735 mmHg 86%
    04:00 +20°C° 0.2 mm 2 mps 735 mmHg 86%
    05:00 +20°C° 0.2 mm 3 mps 735 mmHg 86%
    06:00 +20°C° 0.2 mm 3 mps 736 mmHg 86%
    07:00 +22°C° 0 mm 3 mps 736 mmHg 82%
    08:00 +23°C° 0 mm 4 mps 737 mmHg 77%
    09:00 +25°C° 0 mm 4 mps 737 mmHg 73%
    10:00 +26°C° 0 mm 4 mps 737 mmHg 69%
    11:00 +27°C° 0 mm 4 mps 737 mmHg 65%
    12:00 +28°C° 0 mm 3 mps 737 mmHg 61%
    13:00 +28°C° 0 mm 3 mps 737 mmHg 58%
    14:00 +29°C° 0 mm 3 mps 737 mmHg 55%
    15:00 +30°C° 0 mm 2 mps 737 mmHg 52%
    16:00 +29°C° 0.1 mm 3 mps 737 mmHg 56%
    17:00 +28°C° 0.1 mm 3 mps 737 mmHg 60%
    18:00 +27°C° 0.1 mm 3 mps 737 mmHg 64%
    19:00 +26°C° 0.5 mm 3 mps 738 mmHg 70%
    20:00 +25°C° 0.5 mm 2 mps 738 mmHg 75%
    21:00 +23°C° 0.5 mm 2 mps 738 mmHg 80%
    22:00 +23°C° 0 mm 2 mps 738 mmHg 81%
    23:00 +23°C° 0 mm 2 mps 739 mmHg 81%

    20 July, Saturday

    Time Temperature Precipitation Wind Pressure Humidity
    00:00 +21°C° 0 mm 3 mps 739 mmHg 82%
    01:00 +21°C° 0 mm 3 mps 739 mmHg 84%
    02:00 +20°C° 0 mm 3 mps 739 mmHg 86%
    03:00 +19°C° 0 mm 3 mps 739 mmHg 89%
    04:00 +20°C° 0 mm 2 mps 739 mmHg 88%
    05:00 +20°C° 0 mm 2 mps 739 mmHg 88%
    06:00 +20°C° 0 mm 2 mps 740 mmHg 87%
    07:00 +23°C° 0 mm 2 mps 740 mmHg 80%
    08:00 +25°C° 0 mm 2 mps 740 mmHg 72%
    09:00 +26°C° 0 mm 2 mps 740 mmHg 64%
    10:00 +28°C° 0 mm 2 mps 740 mmHg 59%
    11:00 +29°C° 0 mm 2 mps 740 mmHg 53%
    12:00 +31°C° 0 mm 3 mps 740 mmHg 47%
    13:00 +31°C° 0 mm 3 mps 739 mmHg 45%
    14:00 +33°C° 0 mm 3 mps 739 mmHg 44%
    15:00 +32°C° 0 mm 2 mps 739 mmHg 42%
    16:00 +32°C° 0 mm 2 mps 739 mmHg 45%
    17:00 +31°C° 0 mm 2 mps 739 mmHg 49%
    18:00 +31°C° 0 mm 2 mps 739 mmHg 53%
    19:00 +30°C° 0 mm 2 mps 739 mmHg 56%
    20:00 +28°C° 0 mm 2 mps 739 mmHg 58%
    21:00 +27°C° 0 mm 2 mps 740 mmHg 61%
    22:00 +26°C° 0 mm 2 mps 739 mmHg 62%
    23:00 +25°C° 0 mm 2 mps 739 mmHg 64%

    21 July, Sunday

    Time Temperature Precipitation Wind Pressure Humidity
    00:00 +24°C° 0 mm 2 mps 739 mmHg 65%
    01:00 +24°C° 0 mm 2 mps 739 mmHg 66%
    02:00 +23°C° 0 mm 2 mps 739 mmHg 67%
    03:00 +22°C° 0 mm 1 mps 738 mmHg 68%
    04:00 +22°C° 0 mm 1 mps 738 mmHg 68%
    05:00 +23°C° 0 mm 1 mps 738 mmHg 68%
    06:00 +23°C° 0 mm 1 mps 738 mmHg 68%
    07:00 +25°C° 0 mm 2 mps 738 mmHg 62%
    08:00 +27°C° 0 mm 3 mps 738 mmHg 56%
    09:00 +29°C° 0 mm 4 mps 738 mmHg 50%
    10:00 +30°C° 0 mm 4 mps 737 mmHg 47%
    11:00 +33°C° 0 mm 4 mps 737 mmHg 43%
    12:00 +35°C° 0 mm 5 mps 737 mmHg 39%
    13:00 +35°C° 0 mm 5 mps 737 mmHg 38%
    14:00 +35°C° 0 mm 5 mps 737 mmHg 37%
    15:00 +35°C° 0 mm 6 mps 737 mmHg 37%
    16:00 +35°C° 0 mm 5 mps 737 mmHg 39%
    17:00 +34°C° 0 mm 4 mps 737 mmHg 42%
    18:00 +33°C° 0 mm 4 mps 737 mmHg 45%
    19:00 +30°C° 0 mm 3 mps 737 mmHg 48%
    20:00 +28°C° 0 mm 2 mps 738 mmHg 52%
    21:00 +26°C° 0 mm 2 mps 738 mmHg 55%
    22:00 +25°C° 0 mm 2 mps 738 mmHg 56%
    23:00 +24°C° 0 mm 1 mps 738 mmHg 57%

    22 July, Monday

    Time Temperature Precipitation Wind Pressure Humidity
    00:00 +23°C° 0 mm 1 mps 738 mmHg 58%
    01:00 +23°C° 0.1 mm 1 mps 738 mmHg 61%
    02:00 +22°C° 0.1 mm 1 mps 738 mmHg 64%
    03:00 +21°C° 0.1 mm 1 mps 738 mmHg 66%
    04:00 +22°C° 0.1 mm 1 mps 738 mmHg 68%
    05:00 +22°C° 0.1 mm 1 mps 738 mmHg 69%
    06:00 +23°C° 0.1 mm 1 mps 738 mmHg 70%
    07:00 +24°C° 0 mm 1 mps 738 mmHg 64%
    08:00 +26°C° 0 mm 2 mps 738 mmHg 58%
    09:00 +27°C° 0 mm 2 mps 739 mmHg 53%
    10:00 +29°C° 0 mm 2 mps 739 mmHg 49%
    11:00 +30°C° 0 mm 2 mps 739 mmHg 45%
    12:00 +31°C° 0 mm 2 mps 739 mmHg 41%
    13:00 +32°C° 0 mm 2 mps 739 mmHg 40%
    14:00 +32°C° 0 mm 2 mps 739 mmHg 39%
    15:00 +33°C° 0 mm 1 mps 739 mmHg 37%
    16:00 +32°C° 0 mm 1 mps 739 mmHg 41%
    17:00 +32°C° 0 mm 1 mps 739 mmHg 44%
    18:00 +31°C° 0 mm 1 mps 739 mmHg 47%
    19:00 +29°C° 0 mm 2 mps 739 mmHg 51%
    20:00 +28°C° 0 mm 2 mps 739 mmHg 55%
    21:00 +26°C° 0 mm 2 mps 739 mmHg 59%
    22:00 +26°C° 0 mm 3 mps 739 mmHg 59%
    23:00 +25°C° 0 mm 3 mps 739 mmHg 59%
    Show more